Twentynine Palms, CA

9:07 PM PDT on October 23, 2017 (GMT -0700)
Twentynine Palms Expeditionary Air Field

Weather History for KNXP - June, 2013

Change the Weather History Date:

Saturday, June 22, 2013

  Actual Average Record
Temperature  
Mean Temperature 85 °F -  
Max Temperature 98 °F 96 °F 111 °F (2017)
Min Temperature 73 °F 71 °F 64 °F (2003)
Cooling Degree Days 20    
Growing Degree Days 35 (Base 50)    
Moisture  
Dew Point 31 °F    
Average Humidity 15    
Maximum Humidity 26    
Minimum Humidity 8    
Precipitation  
Precipitation 0.00 in - - ()
Sea Level Pressure  
Sea Level Pressure 29.75 in    
Wind  
Wind Speed 9 mph (NW)    
Max Wind Speed 16 mph    
Max Gust Speed 29 mph    
Visibility 10 miles    
Events      
Averages and records for this station are not official NWS values.
T = Trace of Precipitation, MM = Missing Value Source: NWS Daily Summary

Daily Weather History Graph

Daily Weather History Graph

Search for Another Location

Airport or City:

Trip Planner

Search our weather history database for the weather conditions in past years. The results will help you decide how hot, cold, wet, or windy it might be!

Date:

Astronomy

Jun. 22, 2013 Rise Set
Actual Time 5:33 AM PDT 8:00 PM PDT
Civil Twilight 5:04 AM PDT 8:29 PM PDT
Nautical Twilight 4:27 AM PDT 9:05 PM PDT
Astronomical Twilight 3:48 AM PDT 9:45 PM PDT
Moon 7:22 PM PDT (6/22) 4:47 AM PDT (6/22)
Length of Visible Light 15h 25m
Length of Day
14h 26m
Waxing Gibbous, 99% of the Moon is Illuminated
Jun 22
Waxing Gibbous
Jun 23
Full
Jun 29
Last Quarter
Jul 8
New
Jul 15
First Quarter

Hourly Weather History & Observations

Time (PDT) Temp. Dew Point Humidity Pressure Visibility Wind Dir Wind Speed Gust Speed Precip Events Conditions
12:56 AM 79.0 °F 34.0 °F 20% 29.76 in 10.0 mi NNW 11.5 mph - N/A   Clear
1:56 AM 78.1 °F 30.9 °F 18% 29.75 in 10.0 mi NW 6.9 mph 19.6 mph N/A   Clear
2:56 AM 75.9 °F 26.1 °F 16% 29.76 in 10.0 mi NW 10.4 mph - N/A   Clear
3:56 AM 73.9 °F 27.0 °F 18% 29.77 in 10.0 mi NW 8.1 mph - N/A   Clear
4:56 AM 75.0 °F 30.0 °F 19% 29.77 in 10.0 mi NW 13.8 mph 19.6 mph N/A   Clear
5:56 AM 73.9 °F 30.0 °F 20% 29.79 in 10.0 mi NW 8.1 mph - N/A   Clear
6:56 AM 75.0 °F 32.0 °F 21% 29.81 in 10.0 mi WNW 8.1 mph - N/A   Clear
7:56 AM 77.0 °F 34.0 °F 21% 29.82 in 10.0 mi WNW 11.5 mph - N/A   Clear
8:56 AM 82.0 °F 33.1 °F 17% 29.81 in 10.0 mi NW 16.1 mph - N/A   Clear
9:56 AM 86.0 °F 30.9 °F 14% 29.81 in 10.0 mi NNW 9.2 mph - N/A   Clear
10:56 AM 89.1 °F 28.9 °F 12% 29.81 in 10.0 mi NNW 6.9 mph - N/A   Clear
11:56 AM 91.0 °F 26.1 °F 10% 29.81 in 10.0 mi NW 8.1 mph - N/A   Clear
12:56 PM 93.9 °F 25.0 °F 8% 29.79 in 10.0 mi Variable 6.9 mph - N/A   Clear
1:56 PM 93.9 °F 26.1 °F 9% 29.77 in 10.0 mi WNW 8.1 mph 17.3 mph N/A   Clear
2:56 PM 95.0 °F 26.1 °F 9% 29.74 in 10.0 mi NNW 4.6 mph - N/A   Clear
3:56 PM 96.1 °F 26.1 °F 8% 29.73 in 10.0 mi NW 6.9 mph - N/A   Clear
4:56 PM 97.0 °F 26.1 °F 8% 29.70 in 10.0 mi SSE 5.8 mph - N/A   Clear
5:56 PM 96.1 °F 26.1 °F 8% 29.68 in 10.0 mi Calm Calm - N/A   Clear
6:56 PM 95.0 °F 26.1 °F 9% 29.68 in 10.0 mi Calm Calm - N/A   Clear
7:56 PM 91.9 °F 35.1 °F 13% 29.68 in 10.0 mi SW 13.8 mph - N/A   Clear
8:56 PM 88.0 °F 39.0 °F 18% 29.69 in 10.0 mi WSW 16.1 mph - N/A   Clear
9:56 PM 86.0 °F 39.9 °F 20% 29.72 in 10.0 mi West 12.7 mph - N/A   Clear
10:56 PM 84.0 °F 44.1 °F 25% 29.73 in 10.0 mi WNW 16.1 mph 28.8 mph N/A   Clear
11:56 PM 82.0 °F 44.1 °F 26% 29.74 in 10.0 mi Variable 5.8 mph - N/A   Clear